Weather History for KHYA - March, 2013

Change the Weather History Date:

Friday, March 29, 2013

  Actual Average Record
Temperature  
Mean Temperature 47 °F -  
Max Temperature 54 °F 49 °F 72 °F (1985)
Min Temperature 41 °F 33 °F 16 °F (1956)
Degree Days  
Heating Degree Days 18    
Moisture  
Dew Point 33 °F    
Average Humidity 60    
Maximum Humidity 73    
Minimum Humidity 48    
Precipitation  
Precipitation 0.00 in - - ()
Sea Level Pressure  
Sea Level Pressure 30.00 in    
Wind  
Wind Speed 7 mph (WNW)    
Max Wind Speed 14 mph    
Max Gust Speed 23 mph    
Visibility 10 miles    
Events      
Averages and records for this station are not official NWS values.
T = Trace of Precipitation, MM = Missing Value Source: NWS Daily Summary

Daily Weather History Graph

Daily Weather History Graph

Search for Another Location

Airport or City:

Trip Planner

Search our weather history database for the weather conditions in past years. The results will help you decide how hot, cold, wet, or windy it might be!

Date:

Astronomy

Mar. 29, 2013 Rise Set
Actual Time 6:28 AM EDT 7:03 PM EDT
Civil Twilight 6:00 AM EDT 7:31 PM EDT
Nautical Twilight 5:27 AM EDT 8:04 PM EDT
Astronomical Twilight 4:53 AM EDT 8:38 PM EDT
Moon 10:02 PM EDT (3/29) 7:33 AM EDT (3/29)
Length of Visible Light 13h 30m
Length of Day
12h 34m
Waning Gibbous, 93% of the Moon is Illuminated
Mar 29
Waning Gibbous
Apr 3
Last Quarter
Apr 10
New
Apr 18
First Quarter
Apr 25
Full

Hourly Weather History & Observations

Time (EDT) Temp. Windchill Dew Point Humidity Pressure Visibility Wind Dir Wind Speed Gust Speed Precip Events Conditions
12:56 AM 43.0 °F 40.3 °F 32.0 °F 65% 30.00 in 10.0 mi West 4.6 mph - N/A   Overcast
1:56 AM 43.0 °F 40.3 °F 33.1 °F 68% 30.00 in 10.0 mi West 4.6 mph - N/A   Overcast
2:56 AM 42.1 °F 39.2 °F 32.0 °F 67% 29.99 in 10.0 mi West 4.6 mph - N/A   Overcast
3:56 AM 42.1 °F 38.4 °F 30.9 °F 65% 29.99 in 10.0 mi NW 5.8 mph - N/A   Clear
4:56 AM 41.0 °F 35.8 °F 30.9 °F 67% 29.99 in 10.0 mi NW 8.1 mph - N/A   Clear
5:56 AM 41.0 °F 36.4 °F 30.9 °F 67% 30.00 in 10.0 mi NW 6.9 mph - N/A   Clear
6:56 AM 41.0 °F 35.8 °F 30.9 °F 67% 30.01 in 10.0 mi NW 8.1 mph - N/A   Clear
7:56 AM 45.0 °F 40.1 °F 32.0 °F 60% 30.01 in 10.0 mi NW 9.2 mph - N/A   Clear
8:56 AM 48.0 °F - 32.0 °F 54% 30.02 in 10.0 mi NNW 11.5 mph 17.3 mph N/A   Clear
9:56 AM 51.1 °F - 34.0 °F 52% 30.02 in 10.0 mi North 11.5 mph 19.6 mph N/A   Clear
10:56 AM 51.1 °F - 34.0 °F 52% 30.02 in 10.0 mi NNW 11.5 mph 20.7 mph N/A   Clear
11:56 AM 52.0 °F - 34.0 °F 50% 30.01 in 10.0 mi North 13.8 mph 23.0 mph N/A   Clear
12:56 PM 53.1 °F - 34.0 °F 48% 30.01 in 10.0 mi North 9.2 mph - N/A   Clear
1:56 PM 53.1 °F - 34.0 °F 48% 29.99 in 10.0 mi NNE 5.8 mph 16.1 mph N/A   Clear
2:56 PM 50.0 °F - 34.0 °F 54% 29.99 in 10.0 mi WNW 3.5 mph - N/A   Overcast
3:56 PM 52.0 °F - 34.0 °F 50% 29.99 in 10.0 mi West 6.9 mph - N/A   Overcast
4:56 PM 52.0 °F - 34.0 °F 50% 29.98 in 10.0 mi SW 13.8 mph - N/A   Mostly Cloudy
5:56 PM 50.0 °F - 35.1 °F 57% 29.99 in 10.0 mi WSW 9.2 mph - N/A   Mostly Cloudy
6:56 PM 48.9 °F - 34.0 °F 56% 29.99 in 10.0 mi SW 6.9 mph - N/A   Scattered Clouds
7:56 PM 46.0 °F 42.5 °F 35.1 °F 66% 29.99 in 10.0 mi SW 6.9 mph - N/A   Overcast
8:56 PM 44.1 °F 41.5 °F 36.0 °F 73% 30.01 in 10.0 mi SW 4.6 mph - N/A   Overcast
9:56 PM 45.0 °F - 36.0 °F 71% 30.02 in 10.0 mi Calm Calm - N/A   Overcast
10:56 PM 48.0 °F - 35.1 °F 61% 30.01 in 10.0 mi Calm Calm - 0.00 in   Overcast
11:56 PM 45.0 °F 41.8 °F 35.1 °F 68% 30.01 in 10.0 mi NNW 5.8 mph - N/A   Mostly Cloudy